Regional Weather Roundup
Issued by NWS Cleveland, OH

Home | Current Version | Previous Version | Text Only | Print | Product List | Glossary Off
Versions: 1 2 3 4 5 6 7 8 9 10 11 12 13 14 15 16 17 18 19 20 21 22 23 24 25 26 27 28 29 30 31 32 33 34 35 36 37 38 39 40 41 42 43 44 45 46 47 48 49 50

000
ASUS41 KCLE 201700
RWRCLE
OHIO REGIONAL WEATHER ROUNDUP
NATIONAL WEATHER SERVICE WILMINGTON, OH
100 PM EDT SUN AUG 20 2017

NOTE: "FAIR" INDICATES FEW OR NO CLOUDS BELOW 12,000 FEET WITH NO
SIGNIFICANT WEATHER AND/OR OBSTRUCTIONS TO VISIBILITY.

OHZ001>008-015>018-024>027-034-035-043-044-201800-
   NORTHWEST OHIO

CITY           SKY/WX    TMP DP  RH WIND       PRES   REMARKS
DEFIANCE       FAIR      80  62  54 S7        30.10F
FINDLAY        FAIR      83  63  50 W7        30.11R
TOLEDO EXPRESS FAIR      81  64  56 VRB7      30.11S
TOLEDO EXEC    FAIR      82  62  50 S8        30.12R
LIMA           FAIR      83  67  58 S5        30.11S
$$

OHZ009>014-019>023-028>033-038-089-201800-
   NORTHEAST OHIO

CITY           SKY/WX    TMP DP  RH WIND       PRES   REMARKS
CLE-HOPKINS    FAIR      86  58  38 S9        30.13S
CLE-LAKEFRONT  FAIR      83  62  49 N8        30.10S
CUY CO. ARPT   SUNNY     84  59  42 SE6       30.13S
LORAIN-ELYRIA    N/A    N/A N/A N/A MISG      30.13S
ASHTABULA      FAIR      79  58  48 SW6       30.15S
AKRON-CANTON   FAIR      82  57  42 S10       30.15S
WOOSTER        NOT AVBL
MANSFIELD      FAIR      80  64  58 SE8       30.14S
YOUNGSTOWN     FAIR      80  58  46 SE8       30.15F
$$

OHZ042-051>053-060>062-070>072-077>081-201800-
  SOUTHWEST OHIO

CITY           SKY/WX    TMP DP  RH WIND       PRES   REMARKS
CINC-COVINGTON FAIR      86  71  60 SW12      30.10F HX  91
CINC-LUNKEN    FAIR      87  72  60 S8        30.09F HX  93
HAMILTON       FAIR      88  71  57 W8        30.10S HX  94
DAYTON         NOT AVBL
WRIGHT-PAT AFB DRIZZLE   86  69  56 S7        30.10S HX  90
DAYTON GENERAL FAIR      85  69  58 S8        30.10S
WILMINGTON     FAIR      85  73  67 S10       30.11F HX  91
$$

OHZ036-037-039>041-045>050-054>059-063>069-073>076-082>088-201800-
  CENTRAL AND SOUTHEAST OHIO

CITY           SKY/WX    TMP DP  RH WIND       PRES   REMARKS
COLUMBUS       PTSUNNY   83  69  62 S7        30.12S
OSU AIRPORT    FAIR      82  69  64 S9        30.12S
BOLTON FIELD   PTSUNNY   81  72  74 S6        30.13S
RICKENBACK AFB NOT AVBL
NEWARK         FAIR      81  68  64 MISG      30.13S
MARION         FAIR      82  65  56 VRB5      30.13S
LANCASTER      FAIR      82  70  66 VRB3      30.13S
ZANESVILLE     FAIR      81  67  62 S6        30.14S
NEW PHILLY     FAIR      80  67  64 VRB3      30.15S
$$




USA.gov is the U.S. government's official web portal to all federal, state and local government web resources and services.